FENGYUN 1C DEB, 40696

Orbit data source: Space-Track

FENGYUN 1C DEB, 40696 is space debris in LEO originally from a launch on Mon, 10 May 1999 UTC launched from the Taiyaun Space Center, China (TSC). Fengyun 1C debris stems from the Chinese weather satellite Fengyun-1C, which was intentionally destroyed by a Chinese anti-satellite missile in 2007. This event dramatically increased the amount of space debris, with thousands of trackable fragments posing hazards to satellites and human spaceflight. The Fengyun 1C debris cloud has become a focal point in discussions about space sustainability and the need for international regulations to prevent the creation of new debris.

Loading next visibility...
FENGYUN 1C DEB details
Identifier
40696, 1999-025EXC
Orbit
LEO
Last TLE update1 day ago
Origin
Flag of CNCASC (CN / PRC)
ManufacturerUnknown
MissionSpacecraft
Bus & MotorUnknown
MassUnknown
Launch date (UTC)
1999-05-10 (26 years ago)
Launch vehicleUnknown
Launch site
Taiyaun Space Center, China (TSC)
Object type
Payload
Rocket body
Debris
Shape & HBRUnknown
Radar Cross SectionSmall (<0.1 m²)

Expand to show TLE details & history

TLE from 1 day ago
0 FENGYUN 1C DEB
1 40696U 99025EXC 24338.24483279  .00000655  00000-0  49306-3 0  9990
2 40696  98.9280 329.4557 0079148 308.2858  51.1204 13.96445140504527
Epoch: 2024-12-03T05:52Z
Definitive object data (Epoch: 2024-12-03T05:52:33.553Z)
Latitude0.00002°
Longitude168.75878°
Altitude873.09 km
Speed7.434 km/s
True Right ascension21h 57m 49s
True Declination0° 00' 00"
Sunlit
Object was in daylight at TLE epoch
Visualization TLE readout
Latitude-0.52563°
Longitude-10.24571°
Altitude941.685 km
Speed7.364 km/s
Apparent Right ascension12h 48m 51s
Apparent Declination-34° 51' 59"
Sunlit
Object is in daylight
Visualization observer readout
Local Sidereal Time06:26:24
Azimuth115.357° SE
Elevation-25.362°
Doppler factor1
Orbital elements
Apogee altitude960.963 km
Perigee altitude845.7 km
Semi-major axis7,281.468 km
Eccentricity0.0079148
Inclination98.928°
RAAN329.4557°
Arg. of periapsis308.2858°
True anomaly51.83084°
Mean anomaly51.1204°
Eccentric anomaly51.47518°
Mean motion3.49313 °/min
BSTAR0.00049306
Orbital period103.06 mins
Loading maneuver chart data...
Loading historical data...
Loading historical data...
Loading historical data...
Loading historical data...
Loading historical data...
Loading historical data...
Loading historical data...

FENGYUN 1C DEB Visibility forecast

Observer location: undefined°, undefined

Span
Click to sort rows by Start time (UTC) header in descending order
Start Az.
Max El. time (UTC)
Max El. Az.
Max El.
End time (UTC)
End Az.
10 mins2024-12-04 11:42:16.848Z34.308° NE2024-12-04 11:47:16.848Z96.613° ESE29.731°2024-12-04 11:52:16.848Z159.138° S
9 mins2024-12-04 13:25:16.848Z347.305° N2024-12-04 13:29:16.848Z287.369° WNW30.238°2024-12-04 13:34:16.848Z229.88° WSW
10 mins2024-12-04 23:16:16.848Z150.138° SSE2024-12-04 23:20:16.848Z89.078° E42.081°2024-12-04 23:26:16.848Z352.283° N
5 mins2024-12-05 01:01:16.848Z249.97° W2024-12-05 01:03:16.848Z274.629° WNW16.153°2024-12-05 01:06:16.848Z306.663° NW
|